Flag for Argentina Past Weather in Comodoro Rivadavia, Chubut, Argentina — Yesterday and Last 2 Weeks

Now
46 °F

Clear.


Feels Like: 45 °F
Forecast: 42 / 50 °F
Wind: 3 mph from West

Location: Comodoro Rivadavia Aerodrome

Current Time: May 30, 2016 at 1:58:01 AM

Latest Report: May 30, 2016 at 1:00 AM


Visibility: 10 mi

Pressure: 30.12 "Hg

Humidity: 82%

Dew Point: 41 °F

Location of Comodoro RivadaviaLocation

Past Weather in Comodoro Rivadavia — Graph

°F

Comodoro Rivadavia Temperature Yesterday

Maximum temperature yesterday: 52 °F (at 1:00 PM)
Minimum temperature yesterday: 39 °F (at 9:00 AM)
Average temperature yesterday: 46 °F

High & Low Weather Summary for the Past Weeks

 TemperatureHumidityPressure
High66 °F (May 21, 1:00 PM)100% (May 17, 11:00 PM)30.72 "Hg (May 17, 11:00 PM)
Low32 °F (May 18, 8:00 AM)22% (May 21, 3:00 PM)30.04 "Hg (May 21, 2:00 PM)
Average45 °F78%30.29 "Hg
* Reported May 15 12:00 AM — May 30 12:00 AM, Comodoro Rivadavia, Weather by CustomWeather, © 2016

Note: Actual official high and low records may vary slightly from our data, if they occured in-between our weather recording intervals... More about our weather records

Advertising

Comodoro Rivadavia Weather History for the Previous 24 Hours

Scroll right to see more
 ConditionsComfort  
Time TempWeatherWind HumidityBarometerVisibility
12:00 AM
Mon, May 30
48 °FClear.3 mph82%30.09 "Hg10 mi
11:00 PM
Sun, May 29
48 °FClear.7 mph76%30.09 "Hg10 mi
10:00 PM46 °FClear.8 mph82%30.09 "Hg10 mi
9:00 PM46 °FClear.6 mph82%30.09 "Hg10 mi
8:00 PM46 °FClear.5 mph93%30.07 "Hg10 mi
7:00 PM46 °FClear.No wind93%30.07 "Hg10 mi
6:00 PM48 °FClear.No wind94%30.07 "Hg10 mi
5:00 PM50 °FClear.No wind88%30.04 "Hg10 mi
4:00 PM48 °FSunny.2 mph94%30.04 "Hg10 mi
3:00 PM48 °FSunny.3 mph94%30.04 "Hg10 mi
2:00 PM50 °FSunny.5 mph88%30.04 "Hg10 mi
1:00 PM52 °FSunny.No wind77%30.04 "Hg10 mi
12:00 PM48 °FPassing clouds.2 mph82%30.07 "HgN/A
11:00 AM45 °FSunny.2 mph87%30.07 "Hg10 mi
10:00 AM45 °FSunny.3 mph76%30.04 "Hg10 mi
9:00 AM39 °FSunny.5 mph93%30.04 "Hg10 mi
8:00 AM41 °FSunny.6 mph87%30.04 "Hg10 mi
7:00 AM45 °FClear.7 mph76%30.04 "Hg10 mi
6:00 AM41 °FClear.7 mph87%30.04 "Hg10 mi
5:00 AM43 °FClear.3 mph81%30.04 "Hg10 mi
4:00 AM41 °FClear.5 mph87%30.07 "Hg10 mi
3:00 AM45 °FClear.5 mph87%30.07 "Hg10 mi
2:00 AM46 °FClear.3 mph76%30.07 "Hg10 mi
1:00 AM46 °FClear.3 mph82%30.07 "Hg10 mi
Weather by CustomWeather, © 2016

See weather overviewHow to use our weather pages